Regional Weather Roundup
Issued by NWS

Home | Current Version | Previous Version | Text Only | Print | Product List | Glossary On
Versions: 1 2 3 4 5 6 7 8 9 10 11 12 13 14 15 16 17 18 19 20 21 22 23 24 25 26 27 28 29 30 31 32 33 34 35 36 37 38 39 40 41 42 43 44 45 46 47 48 49 50
000
ASUS43 KLMK 290810
RWRKY
NATIONAL WEATHER SERVICE LOUISVILLE KY
300 AM EST SAT NOV 29 2014

NOTE "FAIR" INDICATES FEW OR NO CLOUDS BELOW 12,000 FEET
WITH NO SIGNIFICANT WEATHER AND/OR OBSTRUCTIONS TO VISIBILITY.

KYZ001>023-026-027-061>063-070>075-290900-
WESTERN AND SOUTH CENTRAL KENTUCKY

CITY           SKY/WX    TMP DP  RH WIND       PRES   REMARKS
PADUCAH        MOCLDY    45  29  53 VRB7      30.01S
HENDERSON      CLEAR     41  27  56 SW10      30.02S
OWENSBORO      PTCLDY    37  29  73 MISG      30.04F
HOPKINSVILLE   CLEAR     42  25  51 S8        30.07F
BOWLING GREEN  PTCLDY    40  22  48 S10       30.12R WCI  33
GLASGOW        CLEAR     41  22  47 SW7       30.12R
$$

KYZ024-025-028>034-038-045-046-053-290900-
NORTH CENTRAL KENTUCKY

CITY           SKY/WX    TMP DP  RH WIND       PRES   REMARKS
LOUISVILLE/SDF MOCLDY    36  23  59 SE6       30.06F WCI  31
LOUISVILLE/LOU MOCLDY    36  22  56 SE3       30.07F
FORT KNOX      PTCLDY    37  24  60 S10       30.04F WCI  29
$$

KYZ035>037-039>044-047>052-055>060-089>105-290900-
NORTHEAST KENTUCKY

CITY           SKY/WX    TMP DP  RH WIND       PRES   REMARKS
LEXINGTON      PTCLDY    34  21  59 S12       30.10S WCI  25
COVINGTON      CLOUDY    35  19  52 S9        30.07R WCI  28
FRANKFORT      PTCLDY    31  20  63 SE5       30.08R WCI  26
$$

KYZ054-064>069-076>088-106>120-290900-
SOUTHEAST KENTUCKY

CITY           SKY/WX    TMP DP  RH WIND       PRES   REMARKS
JACKSON        CLOUDY    34  17  50 S3        30.13R
LONDON         PTCLDY    35  19  52 CALM      30.13R
SOMERSET       PTCLDY    36  21  55 S7        30.15R WCI  30
MIDDLESBORO    NOT AVBL
MONTICELLO     SUNNY     29  23  78 CALM      30.17R
$$



USA.gov is the U.S. government's official web portal to all federal, state and local government web resources and services.